User: anonymous   Login
Location: Caltech
(34.1382°N, 118.1253°W)
Time: 00:33:43
(UTC-08:00)
Language:

PAYLOAD A - Orbit

View from above orbital plane
View from above orbital plane
View from above satellite
View from above satellite

Ground track
Ground track

The orbit data is extracted from the following two-line orbital elements,

1 27840U 03031A   15029.57755770  .00000105  00000-0  45867-4 0  7570
2 27840 098.2173 053.9219 0097905 219.7912 240.0658 14.38770535608263
Epoch (UTC): 29 January 2015 13:51:40
Eccentricity: 0.0097905
inclination: 98.2173°
perigee height: 692 km
apogee height: 832 km
right ascension of ascending node: 53.9219°
argument of perigee: 219.7912°
revolutions per day: 14.38770535
mean anomaly at epoch: 240.0658°
orbit number at epoch: 60826

The dashed part of the orbit path shows where the satellite is in the earth's shadow,  

DLR